When you browse on this site, cookies collect data to enhance your experience and personalize the content and advertising you see.
Visit our Privacy Policy to learn more. By continuing to use the site, you agree to this use of cookies and data.

Meteo pe oră la Szolnok

Astăzi, 4 August, Marţi

Timp Temperatura Precipitaţii Vânt Presiune Umiditate
00:00 +21°C° 0.5 mm 3 m/s 746 mmHg 76%
01:00 +21°C° 0 mm 4 m/s 746 mmHg 77%
02:00 +21°C° 0.9 mm 3 m/s 746 mmHg 79%
03:00 +20°C° 0.9 mm 2 m/s 746 mmHg 81%
04:00 +20°C° 0.9 mm 2 m/s 745 mmHg 83%
05:00 +20°C° 0.6 mm 2 m/s 746 mmHg 80%
06:00 +21°C° 0.6 mm 3 m/s 746 mmHg 77%
07:00 +22°C° 0 mm 3 m/s 747 mmHg 77%
08:00 +25°C° 0.3 mm 3 m/s 747 mmHg 71%
09:00 +26°C° 0.3 mm 3 m/s 747 mmHg 66%
10:00 +28°C° 0.3 mm 2 m/s 747 mmHg 60%
11:00 +29°C° 0.1 mm 2 m/s 747 mmHg 57%
12:00 +30°C° 0.1 mm 2 m/s 747 mmHg 54%
13:00 +31°C° 0.1 mm 1 m/s 747 mmHg 51%
14:00 +31°C° 0.3 mm 1 m/s 747 mmHg 51%
15:00 +31°C° 0.3 mm 1 m/s 747 mmHg 50%
16:00 +31°C° 0.3 mm 1 m/s 747 mmHg 50%
17:00 +30°C° 0.2 mm 2 m/s 747 mmHg 57%
18:00 +28°C° 0.2 mm 3 m/s 747 mmHg 64%
19:00 +26°C° 0.2 mm 5 m/s 748 mmHg 71%
20:00 +25°C° 10.7 mm 5 m/s 748 mmHg 77%
21:00 +22°C° 10.7 mm 5 m/s 749 mmHg 83%
22:00 +20°C° 10.7 mm 5 m/s 749 mmHg 89%
23:00 +20°C° 0.2 mm 4 m/s 750 mmHg 90%

Mâine, 5 August, Miercuri

Timp Temperatura Precipitaţii Vânt Presiune Umiditate
00:00 +20°C° 0.2 mm 3 m/s 750 mmHg 91%
01:00 +21°C° 0.2 mm 2 m/s 750 mmHg 91%
02:00 +20°C° 0.4 mm 3 m/s 750 mmHg 92%
03:00 +20°C° 0.4 mm 3 m/s 750 mmHg 92%
04:00 +20°C° 0.4 mm 3 m/s 750 mmHg 93%
05:00 +20°C° 0.3 mm 3 m/s 750 mmHg 91%
06:00 +20°C° 0.3 mm 4 m/s 750 mmHg 88%
07:00 +20°C° 0.3 mm 5 m/s 750 mmHg 86%
08:00 +21°C° 0.2 mm 5 m/s 751 mmHg 84%
09:00 +22°C° 0.2 mm 5 m/s 751 mmHg 81%
10:00 +23°C° 0.2 mm 6 m/s 751 mmHg 78%
11:00 +23°C° 0 mm 6 m/s 751 mmHg 76%
12:00 +24°C° 0 mm 6 m/s 751 mmHg 74%
13:00 +25°C° 0 mm 5 m/s 751 mmHg 71%
14:00 +26°C° 0 mm 6 m/s 751 mmHg 71%
15:00 +26°C° 0 mm 6 m/s 751 mmHg 70%
16:00 +26°C° 0 mm 6 m/s 751 mmHg 69%
17:00 +24°C° 0.3 mm 6 m/s 751 mmHg 73%
18:00 +23°C° 0.3 mm 5 m/s 751 mmHg 78%
19:00 +21°C° 0.3 mm 5 m/s 751 mmHg 83%
20:00 +21°C° 0.7 mm 5 m/s 752 mmHg 84%
21:00 +20°C° 0.7 mm 5 m/s 752 mmHg 85%
22:00 +20°C° 0.7 mm 5 m/s 753 mmHg 86%
23:00 +20°C° 0 mm 5 m/s 753 mmHg 87%

Poimâine, 6 August, Joi

Timp Temperatura Precipitaţii Vânt Presiune Umiditate
00:00 +20°C° 0 mm 5 m/s 753 mmHg 87%
01:00 +19°C° 0 mm 5 m/s 752 mmHg 88%
02:00 +19°C° 0 mm 5 m/s 753 mmHg 89%
03:00 +19°C° 0 mm 4 m/s 753 mmHg 90%
04:00 +19°C° 0 mm 4 m/s 753 mmHg 91%
05:00 +20°C° 0 mm 4 m/s 754 mmHg 88%
06:00 +20°C° 0 mm 4 m/s 754 mmHg 86%
07:00 +21°C° 0 mm 4 m/s 754 mmHg 84%
08:00 +23°C° 0 mm 4 m/s 755 mmHg 75%
09:00 +26°C° 0 mm 3 m/s 755 mmHg 67%
10:00 +27°C° 0 mm 2 m/s 755 mmHg 59%
11:00 +28°C° 0 mm 2 m/s 755 mmHg 54%
12:00 +29°C° 0 mm 2 m/s 755 mmHg 50%
13:00 +30°C° 0 mm 2 m/s 755 mmHg 45%
14:00 +30°C° 0 mm 3 m/s 755 mmHg 45%
15:00 +32°C° 0 mm 4 m/s 754 mmHg 46%
16:00 +32°C° 0 mm 5 m/s 754 mmHg 47%
17:00 +29°C° 0 mm 4 m/s 754 mmHg 52%
18:00 +27°C° 0 mm 4 m/s 754 mmHg 58%
19:00 +26°C° 0 mm 3 m/s 754 mmHg 64%
20:00 +25°C° 0 mm 3 m/s 755 mmHg 64%
21:00 +24°C° 0 mm 3 m/s 755 mmHg 64%
22:00 +24°C° 0 mm 3 m/s 756 mmHg 64%
23:00 +22°C° 0 mm 3 m/s 756 mmHg 68%

7 August, Vineri

Timp Temperatura Precipitaţii Vânt Presiune Umiditate
00:00 +22°C° 0 mm 3 m/s 756 mmHg 72%
01:00 +21°C° 0 mm 3 m/s 756 mmHg 75%
02:00 +21°C° 0 mm 3 m/s 756 mmHg 75%
03:00 +20°C° 0 mm 3 m/s 756 mmHg 74%
04:00 +20°C° 0 mm 4 m/s 756 mmHg 74%
05:00 +21°C° 0 mm 4 m/s 756 mmHg 72%
06:00 +22°C° 0 mm 4 m/s 756 mmHg 70%
07:00 +23°C° 0 mm 5 m/s 757 mmHg 67%
08:00 +25°C° 0 mm 5 m/s 757 mmHg 63%
09:00 +27°C° 0 mm 5 m/s 757 mmHg 58%
10:00 +29°C° 0 mm 5 m/s 757 mmHg 54%
11:00 +30°C° 0 mm 5 m/s 757 mmHg 50%
12:00 +32°C° 0 mm 5 m/s 756 mmHg 46%
13:00 +33°C° 0 mm 5 m/s 756 mmHg 42%
14:00 +33°C° 0 mm 5 m/s 756 mmHg 44%
15:00 +32°C° 0 mm 5 m/s 756 mmHg 45%
16:00 +32°C° 0 mm 5 m/s 755 mmHg 46%
17:00 +30°C° 0 mm 4 m/s 755 mmHg 52%
18:00 +28°C° 0 mm 3 m/s 755 mmHg 57%
19:00 +26°C° 0 mm 2 m/s 755 mmHg 63%
20:00 +26°C° 0 mm 2 m/s 755 mmHg 64%
21:00 +25°C° 0 mm 2 m/s 756 mmHg 65%
22:00 +24°C° 0 mm 2 m/s 756 mmHg 66%
23:00 +24°C° 0 mm 3 m/s 756 mmHg 68%

8 August, Sâmbătă

Timp Temperatura Precipitaţii Vânt Presiune Umiditate
00:00 +22°C° 0 mm 3 m/s 756 mmHg 70%
01:00 +22°C° 0 mm 3 m/s 756 mmHg 72%
02:00 +21°C° 0 mm 3 m/s 756 mmHg 74%
03:00 +21°C° 0 mm 3 m/s 756 mmHg 76%
04:00 +20°C° 0 mm 3 m/s 756 mmHg 78%
05:00 +21°C° 0 mm 3 m/s 756 mmHg 76%
06:00 +22°C° 0 mm 4 m/s 756 mmHg 74%
07:00 +23°C° 0 mm 4 m/s 756 mmHg 72%
08:00 +26°C° 0 mm 4 m/s 756 mmHg 67%
09:00 +28°C° 0 mm 4 m/s 756 mmHg 61%
10:00 +29°C° 0 mm 3 m/s 755 mmHg 55%
11:00 +30°C° 0 mm 3 m/s 755 mmHg 51%
12:00 +31°C° 0 mm 3 m/s 755 mmHg 48%
13:00 +33°C° 0 mm 3 m/s 754 mmHg 44%
14:00 +33°C° 0 mm 3 m/s 754 mmHg 44%
15:00 +33°C° 0 mm 3 m/s 754 mmHg 44%
16:00 +33°C° 0 mm 3 m/s 753 mmHg 44%
17:00 +30°C° 0 mm 2 m/s 753 mmHg 49%
18:00 +29°C° 0 mm 2 m/s 753 mmHg 54%
19:00 +27°C° 0 mm 1 m/s 753 mmHg 59%
20:00 +26°C° 0 mm 1 m/s 753 mmHg 62%
21:00 +26°C° 0 mm 1 m/s 753 mmHg 64%
22:00 +25°C° 0 mm 1 m/s 753 mmHg 66%
23:00 +24°C° 0 mm 2 m/s 753 mmHg 70%

9 August, Duminică

Timp Temperatura Precipitaţii Vânt Presiune Umiditate
00:00 +24°C° 0 mm 2 m/s 753 mmHg 74%
01:00 +22°C° 0 mm 3 m/s 753 mmHg 78%
02:00 +22°C° 0 mm 3 m/s 753 mmHg 79%
03:00 +21°C° 0 mm 3 m/s 753 mmHg 81%
04:00 +21°C° 0 mm 3 m/s 752 mmHg 82%
05:00 +21°C° 0 mm 3 m/s 753 mmHg 80%
06:00 +22°C° 0 mm 3 m/s 753 mmHg 77%
07:00 +23°C° 0 mm 4 m/s 753 mmHg 75%
08:00 +25°C° 0 mm 3 m/s 753 mmHg 69%
09:00 +27°C° 0 mm 3 m/s 753 mmHg 64%
10:00 +28°C° 0 mm 3 m/s 753 mmHg 58%
11:00 +29°C° 0 mm 3 m/s 752 mmHg 54%
12:00 +30°C° 0 mm 3 m/s 752 mmHg 50%
13:00 +31°C° 0 mm 3 m/s 752 mmHg 47%
14:00 +31°C° 0 mm 3 m/s 752 mmHg 46%
15:00 +31°C° 0 mm 3 m/s 751 mmHg 46%
16:00 +31°C° 0 mm 3 m/s 751 mmHg 45%
17:00 +30°C° 0 mm 3 m/s 751 mmHg 50%
18:00 +28°C° 0 mm 3 m/s 751 mmHg 55%
19:00 +26°C° 0 mm 2 m/s 751 mmHg 60%
20:00 +25°C° 0 mm 2 m/s 751 mmHg 62%
21:00 +25°C° 0 mm 2 m/s 752 mmHg 63%
22:00 +24°C° 0 mm 1 m/s 752 mmHg 64%
23:00 +24°C° 0 mm 1 m/s 752 mmHg 66%
Arată mai mult